FW0924 Weather Reports


Display with metric or nautical units.
time (UTC)temp
F
wind
direction
speed
MPH
gust
MPH
rain 1hr
in
rain 24hr
in
rain mn
in
humidity
%
barometer
mb
20260509075033 60 0.0 0.0 0.00 0.00 0.00 75 1024.9
20260509074632 60 0.0 0.0 0.00 0.00 0.00 74 1024.8
20260509074050 61 0.0 0.0 0.00 0.00 0.00 72 1024.8
20260509073549 61 0.0 0.0 0.00 0.00 0.00 72 1024.7
20260509073048 62 0.0 0.0 0.00 0.00 0.00 71 1024.6
20260509072627 62 0.0 0.0 0.00 0.00 0.00 71 1024.5
20260509072209 62 0.0 0.0 0.00 0.00 0.00 70 1024.5
20260509071645 63 0.0 0.0 0.00 0.00 0.00 69 1024.5
20260509071044 63 0.0 1.0 0.00 0.00 0.00 68 1024.5
20260509070543 64 0.0 1.0 0.00 0.00 0.00 68 1024.4
20260509070042 64 0.0 1.0 0.00 0.00 0.00 67 1024.3
20260509065621 64 0.0 0.0 0.00 0.00 0.00 66 1024.3
20260509065201 65 0.0 0.0 0.00 0.00 0.00 64 1024.2
20260509064619 66 0.0 0.0 0.00 0.00 0.00 63 1024.1
20260509064037 66 45 0.0 3.0 0.00 0.00 0.00 61 1024.0
20260509063616 67 0.0 0.0 0.00 0.00 0.00 59 1024.0
20260509063035 68 0.0 2.0 0.00 0.00 0.00 58 1023.9
20260509062654 68 0.0 1.0 0.00 0.00 0.00 55 1023.8
20260509062113 69 45 0.0 4.0 0.00 0.00 0.00 54 1023.8
20260509061712 70 0.0 2.0 0.00 0.00 0.00 53 1023.8
20260509061131 70 0.0 0.0 0.00 0.00 0.00 51 1023.6
20260509060710 70 0.0 0.0 0.00 0.00 0.00 51 1023.6
20260509060249 70 0.0 2.0 0.00 0.00 0.00 51 1023.6
20260509055607 70 0.0 3.0 0.00 0.00 0.00 51 1023.5
20260509054707 72 0.0 2.0 0.00 0.00 0.00 49 1023.4
20260509054124 71 0.0 2.0 0.00 0.00 0.00 50 1023.4
20260509053703 71 0.0 2.0 0.00 0.00 0.00 50 1023.3
20260509053122 71 0.0 2.0 0.00 0.00 0.00 50 1023.3
20260509052642 71 0.0 1.0 0.00 0.00 0.00 47 1023.2
20260509052240 72 0.0 1.0 0.00 0.00 0.00 42 1023.2
20260509051639 73 0.0 1.0 0.00 0.00 0.00 41 1023.2
20260509051238 73 0.0 3.0 0.00 0.00 0.00 41 1023.3
20260509050558 73 0.0 1.0 0.00 0.00 0.00 42 1023.2
20260509045654 73 0.0 1.0 0.00 0.00 0.00 41 1023.2
20260509045113 72 0.0 0.0 0.00 0.00 0.00 39 1023.2
20260509044652 72 0.0 0.0 0.00 0.00 0.00 38 1023.2
20260509044234 72 0.0 1.0 0.00 0.00 0.00 38 1023.2
20260509043651 73 0.0 2.0 0.00 0.00 0.00 36 1023.3
20260509043109 73 270 0.0 4.0 0.00 0.00 0.00 37 1023.2
20260509042730 73 0.0 1.0 0.00 0.00 0.00 37 1023.3
20260509042107 74 45 0.0 4.0 0.00 0.00 0.00 37 1023.3
20260509041646 74 0.0 2.0 0.00 0.00 0.00 37 1023.2
20260509041104 73 0.0 1.0 0.00 0.00 0.00 38 1023.3
20260509040623 72 0.0 0.0 0.00 0.00 0.00 39 1023.3
20260509040105 71 0.0 1.0 0.00 0.00 0.00 40 1023.2
20260509035641 73 0.0 1.0 0.00 0.00 0.00 38 1023.3
20260509035141 73 0.0 2.0 0.00 0.00 0.00 38 1023.3
20260509034539 73 0.0 0.0 0.00 0.00 0.00 38 1023.2
20260509034058 72 0.0 1.0 0.00 0.00 0.00 38 1023.3
20260509033617 72 0.0 2.0 0.00 0.00 0.00 38 1023.4
20260509033056 72 0.0 1.0 0.00 0.00 0.00 38 1023.4
20260509032635 72 0.0 2.0 0.00 0.00 0.00 39 1023.5
20260509032053 72 0.0 2.0 0.00 0.00 0.00 38 1023.5
20260509031632 73 0.0 1.0 0.00 0.00 0.00 38 1023.5
20260509031152 73 0.0 1.0 0.00 0.00 0.00 38 1023.6
20260509030652 73 0.0 2.0 0.00 0.00 0.00 39 1023.7
20260509025709 73 0.0 2.0 0.00 0.00 0.00 39 1023.9
20260509025027 73 0.0 1.0 0.00 0.00 0.00 39 1023.8
20260509024044 75 270 0.0 3.0 0.00 0.00 0.00 40 1023.9
20260509023543 74 0.0 1.0 0.00 0.00 0.00 41 1024.0
20260509023202 72 225 1.0 4.0 0.00 0.00 0.00 42 1024.0
20260509022603 71 0.0 2.0 0.00 0.00 0.00 41 1024.2
20260509022041 72 0.0 2.0 0.00 0.00 0.00 41 1024.3
20260509021600 72 0.0 1.0 0.00 0.00 0.00 45 1024.3
20260509021138 71 0.0 1.0 0.00 0.00 0.00 45 1024.4
20260509020519 72 0.0 2.0 0.00 0.00 0.00 45 1024.5
20260509015715 71 0.0 1.0 0.00 0.00 0.00 49 1024.5
20260509015134 71 0.0 1.0 0.00 0.00 0.00 49 1024.5
20260509014713 70 0.0 0.0 0.00 0.00 0.00 50 1024.6
20260509014212 69 0.0 1.0 0.00 0.00 0.00 50 1024.7
20260509013610 70 0.0 1.0 0.00 0.00 0.00 49 1024.7
20260509013132 71 0.0 0.0 0.00 0.00 0.00 49 1024.7
20260509012709 70 0.0 1.0 0.00 0.00 0.00 49 1024.7
20260509012127 70 0.0 0.0 0.00 0.00 0.00 50 1024.8
20260509011647 70 0.0 1.0 0.00 0.00 0.00 50 1024.7
20260509011125 70 0.0 1.0 0.00 0.00 0.00 51 1024.7
20260509010644 69 0.0 0.0 0.00 0.00 0.00 52 1024.8
20260509010105 68 0.0 0.0 0.00 0.00 0.00 53 1024.9
20260509005701 68 0.0 2.0 0.00 0.00 0.00 52 1024.9
20260509004659 69 0.0 1.0 0.00 0.00 0.00 52 1025.0
20260509004118 68 0.0 1.0 0.00 0.00 0.00 53 1025.0
20260509003657 67 0.0 1.0 0.00 0.00 0.00 54 1025.1
20260509003116 67 0.0 2.0 0.00 0.00 0.00 53 1025.0
20260509002655 67 0.0 1.0 0.00 0.00 0.00 54 1025.1
20260509002114 67 0.0 1.0 0.00 0.00 0.00 53 1025.1
20260509001635 68 0.0 0.0 0.00 0.00 0.00 54 1025.1
20260509001211 67 0.0 0.0 0.00 0.00 0.00 55 1025.1
20260509000550 0 0.0 0.0 0.00 0.00 0.00 1025.1
20260509000211 0 0.0 0.0 0.00 0.00 0.00 1025.1
20260508235107 0 0.0 0.0 0.00 0.00 0.00 1025.1
20260508234647 0 0.0 0.0 0.00 0.00 0.00 1025.2
20260508234105 0 0.0 0.0 0.00 0.00 0.00 1025.2
20260508233624 0 0.0 0.0 0.00 0.00 0.00 1025.2
20260508233103 0 0.0 0.0 0.00 0.00 0.00 1025.1
20260508232642 0 0.0 0.0 0.00 0.00 0.00 1025.1
20260508232100 0 0.0 0.0 0.00 0.00 0.00 1025.2
20260508231639 0 0.0 0.0 0.00 0.00 0.00 1025.2
20260508231058 0 0.0 0.0 0.00 0.00 0.00 1025.2
20260508230619 0 0.0 0.0 0.00 0.00 0.00 1025.1
20260508230157 0 0.0 0.0 0.00 0.00 0.00 1025.2
20260508225054 0 0.0 0.0 0.00 0.00 0.00 1025.1
20260508224633 0 0.0 0.0 0.00 0.00 0.00 1025.1
20260508224052 0 0.0 0.0 0.00 0.00 0.00 1025.1
20260508223630 0 0.0 0.0 0.00 0.00 0.00 1025.1
20260508223049 0 0.0 0.0 0.00 0.00 0.00 1025.0
20260508222628 0 0.0 0.0 0.00 0.00 0.00 1025.0
20260508222209 0 0.0 0.0 0.00 0.00 0.00 1025.0
20260508221627 0 0.0 0.0 0.00 0.00 0.00 1024.9
20260508221045 0 0.0 0.0 0.00 0.00 0.00 1024.8
20260508220624 0 0.0 0.0 0.00 0.00 0.00 1024.8
20260508220043 0 0.0 0.0 0.00 0.00 0.00 1024.8
20260508215602 0 0.0 0.0 0.00 0.00 0.00 1024.8
20260508215041 0 0.0 0.0 0.00 0.00 0.00 1024.7
20260508214621 0 0.0 0.0 0.00 0.00 0.00 1024.6
20260508214038 0 0.0 0.0 0.00 0.00 0.00 1024.5
20260508213617 0 0.0 0.0 0.00 0.00 0.00 1024.4
20260508213159 0 0.0 0.0 0.00 0.00 0.00 1024.3
20260508212515 0 0.0 0.0 0.00 0.00 0.00 1024.3
20260508212134 0 0.0 0.0 0.00 0.00 0.00 1024.2
20260508211713 0 0.0 0.0 0.00 0.00 0.00 1024.1
20260508211132 0 0.0 0.0 0.00 0.00 0.00 1024.0
20260508210712 0 0.0 0.0 0.00 0.00 0.00 1024.0
20260508210152 0 0.0 0.0 0.00 0.00 0.00 1024.0
20260508205127 51 0.0 0.0 0.00 0.00 0.00 89 1023.9
20260508204706 51 0.0 0.0 0.00 0.00 0.00 89 1023.8
20260508204125 51 0.0 0.0 0.00 0.00 0.00 89 1023.8
20260508203706 51 0.0 0.0 0.00 0.00 0.00 89 1023.8
20260508203123 51 0.0 0.0 0.00 0.00 0.00 88 1023.7
20260508202644 51 0.0 0.0 0.00 0.00 0.00 88 1023.7
20260508202101 51 0.0 0.0 0.00 0.00 0.00 87 1023.6
20260508201701 51 0.0 0.0 0.00 0.00 0.00 86 1023.5
20260508201240 51 0.0 0.0 0.00 0.00 0.00 85 1023.5
20260508200557 52 0.0 0.0 0.00 0.00 0.00 85 1023.4
20260508195657 52 0.0 0.0 0.00 0.00 0.00 84 1023.2
20260508195235 53 0.0 0.0 0.00 0.00 0.00 84 1023.2
20260508194654 53 0.0 0.0 0.00 0.00 0.00 84 1023.2
20260508194152 54 0.0 0.0 0.00 0.00 0.00 83 1023.1
20260508193551 54 0.0 0.0 0.00 0.00 0.00 83 1023.0
20260508192630 54 0.0 0.0 0.00 0.00 0.00 83 1022.8
20260508192108 54 0.0 0.0 0.00 0.00 0.00 83 1022.8
20260508191606 54 0.0 0.0 0.00 0.00 0.00 83 1022.8
20260508191105 54 0.0 0.0 0.00 0.00 0.00 84 1022.8
20260508190646 54 0.0 0.0 0.00 0.00 0.00 84 1022.8
20260508190204 54 0.0 0.0 0.00 0.00 0.00 84 1022.8
20260508185141 53 0.0 0.0 0.00 0.00 0.00 85 1022.7
20260508184621 53 0.0 0.0 0.00 0.00 0.00 85 1022.6
20260508184059 53 0.0 0.0 0.00 0.00 0.00 85 1022.6
20260508183618 53 0.0 0.0 0.00 0.00 0.00 85 1022.5
20260508183057 53 0.0 0.0 0.00 0.00 0.00 84 1022.5
20260508182556 53 0.0 0.0 0.00 0.00 0.00 84 1022.5
20260508182055 53 0.0 0.0 0.00 0.00 0.00 84 1022.5
20260508181633 53 0.0 0.0 0.00 0.00 0.00 84 1022.4
20260508181212 53 0.0 0.0 0.00 0.00 0.00 84 1022.3
20260508180531 53 0.0 0.0 0.00 0.00 0.00 84 1022.3
20260508180151 53 0.0 0.0 0.00 0.00 0.00 85 1022.2
20260508175530 53 0.0 0.0 0.00 0.00 0.00 85 1022.2
20260508175050 53 0.0 0.0 0.00 0.00 0.00 85 1022.3
20260508174607 53 0.0 0.0 0.00 0.00 0.00 85 1022.2
20260508174047 53 0.0 0.0 0.00 0.00 0.00 85 1022.3
20260508173605 53 0.0 0.0 0.00 0.00 0.00 85 1022.3
20260508173043 53 0.0 0.0 0.00 0.00 0.00 85 1022.4
20260508172642 53 0.0 0.0 0.00 0.00 0.00 85 1022.4
20260508171521 53 0.0 0.0 0.00 0.00 0.00 86 1022.3
20260508171039 53 0.0 0.0 0.00 0.00 0.00 87 1022.3
20260508170639 52 0.0 0.0 0.00 0.00 0.00 87 1022.3
20260508164614 51 0.0 0.0 0.00 0.00 0.00 87 1022.4
20260508164214 51 0.0 0.0 0.00 0.00 0.00 87 1022.4
20260508163651 51 0.0 0.0 0.00 0.00 0.00 87 1022.4
20260508163231 51 0.0 0.0 0.00 0.00 0.00 87 1022.3
20260508162609 51 0.0 0.0 0.00 0.00 0.00 86 1022.3
20260508161729 50 0.0 0.0 0.00 0.00 0.00 85 1022.3
20260508161128 51 0.0 0.0 0.00 0.00 0.00 85 1022.2
20260508160706 51 0.0 0.0 0.00 0.00 0.00 85 1022.3
20260508160124 51 0.0 0.0 0.00 0.00 0.00 84 1022.4
20260508155704 51 0.0 0.0 0.00 0.00 0.00 84 1022.2
20260508155122 51 0.0 0.0 0.00 0.00 0.00 84 1022.3
20260508154701 52 0.0 0.0 0.00 0.00 0.00 83 1022.3
20260508154220 52 0.0 0.0 0.00 0.00 0.00 82 1022.2
20260508153238 52 0.0 0.0 0.00 0.00 0.00 81 1022.2
20260508152657 52 0.0 0.0 0.00 0.00 0.00 81 1022.2
20260508152115 52 0.0 0.0 0.00 0.00 0.00 81 1022.2
20260508151636 52 0.0 0.0 0.00 0.00 0.00 80 1022.2
20260508151113 52 0.0 0.0 0.00 0.00 0.00 80 1022.3
20260508150632 53 0.0 0.0 0.00 0.00 0.00 80 1022.3
20260508150111 53 0.0 0.0 0.00 0.00 0.00 79 1022.3
20260508145610 54 0.0 0.0 0.00 0.00 0.00 79 1022.2
20260508145111 54 0.0 0.0 0.00 0.00 0.00 79 1022.2
20260508144627 54 0.0 0.0 0.00 0.00 0.00 79 1022.2
20260508144106 54 0.0 0.0 0.00 0.00 0.00 79 1022.3
20260508143545 54 0.0 0.0 0.00 0.00 0.00 78 1022.3
20260508143104 54 0.0 0.0 0.00 0.00 0.00 78 1022.4
20260508142643 54 0.0 0.0 0.00 0.00 0.00 78 1022.4
20260508142102 54 0.0 0.0 0.00 0.00 0.00 78 1022.4
20260508141642 54 0.0 0.0 0.00 0.00 0.00 78 1022.4
20260508141100 54 0.0 0.0 0.00 0.00 0.00 78 1022.4
20260508140639 54 0.0 0.0 0.00 0.00 0.00 78 1022.3
20260508140218 54 0.0 0.0 0.00 0.00 0.00 78 1022.2
20260508135035 54 0.0 0.0 0.00 0.00 0.00 78 1022.1
20260508134053 54 0.0 0.0 0.00 0.00 0.00 78 1022.2
20260508133612 54 0.0 0.0 0.00 0.00 0.00 78 1022.1
20260508133051 54 0.0 0.0 0.00 0.00 0.00 78 1022.2
20260508132630 54 0.0 0.0 0.00 0.00 0.00 77 1022.1
20260508132151 54 0.0 0.0 0.00 0.00 0.00 78 1022.2
20260508131527 54 0.0 0.0 0.00 0.00 0.00 78 1022.2
20260508130525 54 0.0 0.0 0.00 0.00 0.00 77 1022.2
20260508124701 54 0.0 0.0 0.00 0.00 0.00 76 1022.3
20260508124121 54 0.0 0.0 0.00 0.00 0.00 76 1022.3
20260508123620 55 0.0 0.0 0.00 0.00 0.00 76 1022.2
20260508123138 55 0.0 1.0 0.00 0.00 0.00 76 1022.1
20260508122516 55 0.0 0.0 0.00 0.00 0.00 76 1022.2
20260508121656 54 0.0 0.0 0.00 0.00 0.00 75 1022.2
20260508121114 54 0.0 0.0 0.00 0.00 0.00 75 1022.2
20260508120713 54 0.0 0.0 0.00 0.00 0.00 75 1022.2
20260508120131 54 0.0 0.0 0.00 0.00 0.00 75 1022.2
20260508115752 54 0.0 0.0 0.00 0.00 0.00 75 1022.2
20260508115109 54 0.0 0.0 0.00 0.00 0.00 74 1022.3
20260508114608 55 0.0 0.0 0.00 0.00 0.00 74 1022.2
20260508113605 55 0.0 0.0 0.00 0.00 0.00 74 1022.1
20260508112122 55 0.0 0.0 0.00 0.00 0.00 74 1022.0
20260508111621 55 0.0 0.0 0.00 0.00 0.00 74 1021.8
20260508111121 56 0.0 0.0 0.00 0.00 0.00 74 1021.8
20260508110640 56 0.0 0.0 0.00 0.00 0.00 74 1021.8
20260508110118 56 0.0 0.0 0.00 0.00 0.00 74 1021.7
20260508105719 56 0.0 1.0 0.00 0.00 0.00 74 1021.6
20260508105117 56 0.0 1.0 0.00 0.00 0.00 74 1021.6
20260508104655 56 0.0 0.0 0.00 0.00 0.00 73 1021.7
20260508104113 56 0.0 0.0 0.00 0.00 0.00 73 1021.7
20260508103655 56 0.0 0.0 0.00 0.00 0.00 73 1021.6
20260508103111 56 0.0 0.0 0.00 0.00 0.00 73 1021.6
20260508102631 56 0.0 0.0 0.00 0.00 0.00 73 1021.6
20260508102231 56 0.0 0.0 0.00 0.00 0.00 72 1021.4
20260508101548 56 0.0 0.0 0.00 0.00 0.00 72 1021.3
20260508100627 57 0.0 0.0 0.00 0.00 0.00 72 1021.2
20260508095644 57 0.0 0.0 0.00 0.00 0.00 71 1021.2
20260508095123 57 0.0 1.0 0.00 0.00 0.00 71 1021.2
20260508094040 57 0.0 0.0 0.00 0.00 0.00 70 1021.0
20260508093559 57 0.0 0.0 0.00 0.00 0.00 70 1021.0
20260508093058 57 0.0 0.0 0.00 0.00 0.00 69 1020.9
20260508092057 58 0.0 0.0 0.00 0.00 0.00 68 1020.8
20260508090655 58 0.0 1.0 0.00 0.00 0.00 67 1020.6
20260508090112 58 0.0 1.0 0.00 0.00 0.00 67 1020.5
20260508085651 58 0.0 1.0 0.00 0.00 0.00 67 1020.3
20260508085149 58 0.0 1.0 0.00 0.00 0.00 66 1020.3
20260508084107 58 0.0 1.0 0.00 0.00 0.00 65 1020.3
20260508083548 59 0.0 0.0 0.00 0.00 0.00 64 1020.3
20260508083025 59 0.0 0.0 0.00 0.00 0.00 63 1020.2
20260508082544 59 0.0 0.0 0.00 0.00 0.00 62 1020.2
20260508082123 59 0.0 0.0 0.00 0.00 0.00 61 1020.1
20260508081021 60 0.0 1.0 0.00 0.00 0.00 61 1020.0
20260508080600 60 0.0 1.0 0.00 0.00 0.00 60 1019.9
20260508080202 60 0.0 1.0 0.00 0.00 0.00 60 1019.8
20260508075517 60 225 0.0 3.0 0.00 0.00 0.00 60 1019.6
20260508075119 60 0.0 1.0 0.00 0.00 0.00 59 1019.5